Lexington Weather

Lexington, Massachusetts, USA

40°F
4/22/2024 7:49am 
  • Lexington Conditions: Clear
  • Temperature: 39.9°F / 4.4°CWarmer 3.0°F than last hour.
  • Dew Point: 29.1°FIncreased 0.3°Fsince last hour.
  • Relative Humidity: 65%Decreased 7.0% since last hour.
  • Wind: Calm, 10-min avg: Calm, gust: 2 mph
  • Barometer: 29.95 inRising 0.02  inHg/hr Rising Slowly
  • Visibility: 10 miles
  • Rain Today: 0.00 in
  •   

Regional Weather Roundup
for Boston, MA

        
000
ASUS41 KBOX 220710
RWRBOX

REGIONAL WEATHER ROUNDUP
NATIONAL WEATHER SERVICE BOSTON/NORTON MA
300 AM EDT MON APR 22 2024

NOTE:  "FAIR" INDICATES FEW OR NO CLOUDS BELOW 12,000 FEET WITH NO 
SIGNIFICANT WEATHER AND/OR OBSTRUCTIONS TO VISIBILITY.

MAZALL-220800-
EASTERN MASSACHUSETTS
  
CITY           SKY/WX    TMP DP  RH WIND       PRES   REMARKS
BOSTON         PTCLDY    43  25  49 W9        29.90S                  
BEVERLY        CLEAR     38  25  59 W6        29.88F                  
LAWRENCE       CLEAR     36  25  64 SW6       29.90F WCI  31          
BEDFORD        CLEAR     37  25  61 W3        29.88F                  
NORWOOD        CLEAR     39  26  59 W5        29.91S                  
MARSHFIELD     CLEAR     36  27  69 W5        29.90S WCI  32          
PLYMOUTH       CLEAR     37  26  64 W5        29.90S                  
TAUNTON        CLEAR     38  26  62 W3        29.91F                  
NEW BEDFORD    CLEAR     38  27  64 W5        29.91S                  
$$

MAZALL-220800-
CAPE COD AND THE ISLANDS
  
CITY           SKY/WX    TMP DP  RH WIND       PRES   REMARKS
FALMOUTH       CLEAR     36  28  75 NW6       29.91S WCI  31          
HYANNIS        CLEAR     40  25  55 NW5       29.88S                  
CHATHAM        PTCLDY    42  29  59 NW7       29.90S                  
PROVINCETOWN   CLEAR     43  32  65 W13       29.90S                  
NANTUCKET      PTCLDY    45  29  53 NW13      29.90S                  
MARTHAS VNYRD  CLEAR     42  28  57 NW8       29.91F                  
$$
 
MAZALL-220800-
CENTRAL AND WESTERN MASSACHUSETTS
  
CITY           SKY/WX    TMP DP  RH WIND       PRES   REMARKS
WORCESTER      CLEAR     37  22  54 W9        29.88S WCI  30          
FITCHBURG      CLEAR     36  24  62 NE3       29.90F                  
ORANGE         CLEAR     30  26  85 CALM      29.91S                  
SPRINGFIELD    CLEAR     41  26  54 NW12      29.89F                  
WESTFIELD      CLEAR     39  26  59 NW7       29.93R                  
NORTH ADAMS    CLEAR     41  26  55 W14G23    29.92F                  
PITTSFIELD     CLEAR     36  25  64 W8        29.90F WCI  30          
$$
 
RIZALL-220800-
RHODE ISLAND
  
CITY           SKY/WX    TMP DP  RH WIND       PRES   REMARKS
PROVIDENCE     CLEAR     39  27  62 W6        29.93S                  
NEWPORT        CLEAR     40  28  62 W6        29.92S                  
BLOCK ISLAND   CLEAR     41  29  62 NW8       29.95F                  
SMITHFIELD     CLEAR     37  25  61 W6        29.92S                  
WESTERLY       CLEAR     37  28  70 W3        29.94F                  
$$
 
CTZALL-220800-
CONNECTICUT
  
CITY           SKY/WX    TMP DP  RH WIND       PRES   REMARKS
BRADLEY INTL   PTCLDY    37  27  67 SW6       29.94R                  
HARTFORD       CLEAR     41  28  60 W5        29.95R                  
PLAINVILLE     FAIR      32  30  90 W3        29.94S                  
BRIDGEPORT     CLEAR     40  28  62 W3        29.97S                  
DANBURY        CLEAR     33  26  75 MISG      29.96F                  
GROTON         CLEAR     34  28  79 NW5       29.94F WCI  30          
NEW HAVEN      CLEAR     45  32  60 VRB5      29.95F                  
CHESTER        CLEAR     37  25  60 CALM      29.94F                  
MERIDEN        CLEAR     31  27  85 CALM      29.96S                  
WILLIMANTIC    CLEAR     32  27  81 S3        29.94S                  
OXFORD         CLEAR     35  23  61 CALM      29.95S                  
$$

MEZ002-015-021-024-NHZ003-005-008-011-012-014-VTZ005-008-220800-
NORTHERN NEW ENGLAND
  
CITY           SKY/WX    TMP DP  RH WIND       PRES   REMARKS
PORTLAND ME    CLEAR     37  26  64 SW5       29.84S                  
BANGOR ME      CLEAR     38  25  59 SW3       29.77F                  
CONCORD NH     CLEAR     31  24  75 CALM      29.87S                  
MANCHESTER NH  CLEAR     39  23  52 SW6       29.86F                  
NASHUA NH      CLEAR     36  26  67 CALM      29.89F                  
PORTSMOUTH NH  CLEAR     40  27  59 W3        29.86F                  
JAFFREY NH     CLEAR     35  24  64 CALM      29.88S                  
KEENE NH       CLEAR     27  26  96 CALM      29.90S                  
BURLINGTON VT  CLOUDY    36  26  67 NW14      29.96R WCI  27          
MT. WASHINGTON SNOWSHWR  16  16 100 NW56G64     N/A  VSB 0   WCI -10  
$$

NYZ052-076-220800-
EASTERN NEW YORK
  
CITY           SKY/WX    TMP DP  RH WIND       PRES   REMARKS
ALBANY         CLEAR     37  25  61 W7        29.96F WCI  32          
NEW YORK CITY  CLEAR     46  23  40 NW9       29.99S                  
$$
 
ANZALL-220800-
MARINE OBSERVATIONS
  
STATION/POSITION TIME  TEMP    WIND        PRES    VSBY  WAVE
                       AIR SEA DIR/SP/G                  HT/PER
                 (UTC) (F)     (DEG/KT/KT) (MB)    (MI)  (FT/S)
BOSTON BUOY      0650   45     270/ 14/ 17 1011.8F         2/ 3
BUZZARDS BAY     0600   45     300/ 13/ 14 1013.8F
NANTUCKET SOUND  0640   46 48  300/ 14/ 17 1012.0F
MASS BAY-STELLWA 0504   45 45  290/ 16/ 17 1011.9R  1 7/8  1/ 3
ISLE OF SHOALS   0600   42     260/ 13/ 15 1011.1R
S OF BLOCK IS    0656      45                N/A           3/ 4
$$

......................KEY.........................
  SKY/WX - SKY CONDITION/PRESENT WEATHER
  TMP    - TEMPERATURE IN FAHRENHEIT
  DWPT   - DEWPOINT IN FAHRENHEIT
  RH     - RELATIVE HUMIDITY IN PERCENT
  WIND   - DIRECTION AND SPEED IN MPH
  PRES   - MEAN SEA LEVEL PRESSURE IN INCHES OF HG
  WCI    - WIND CHILL INDEX
  VSB    - VISIBILITY IN MILES
  HX     - HEAT INDEX
  TC     - TEMPERATURE IN CELSIUS
  VRB    - VARIABLE WIND DIRECTION
  N/A    - NOT AVAILABLE
  
      

Other recent Regional Weather Roundups

Mon Apr 22, 7:10am EDT

Mon Apr 22, 6:10am EDT

Mon Apr 22, 5:10am EDT

Mon Apr 22, 4:10am EDT

Mon Apr 22, 2:10am EDT

Mon Apr 22, 1:10am EDT

Mon Apr 22, 12:10am EDT

Sun Apr 21, 11:10pm EDT

Sun Apr 21, 10:10pm EDT

Sun Apr 21, 9:10pm EDT

Sun Apr 21, 8:10pm EDT

Sun Apr 21, 7:10pm EDT

Sun Apr 21, 6:10pm EDT

Sun Apr 21, 5:10pm EDT

Sun Apr 21, 4:10pm EDT

Sun Apr 21, 3:10pm EDT

Sun Apr 21, 2:10pm EDT

Sun Apr 21, 1:10pm EDT

Sun Apr 21, 12:10pm EDT

Sun Apr 21, 11:10am EDT

Sun Apr 21, 10:10am EDT

Sun Apr 21, 9:10am EDT

Sun Apr 21, 8:10am EDT

Sun Apr 21, 7:10am EDT

Sun Apr 21, 6:10am EDT

Sun Apr 21, 5:10am EDT

Sun Apr 21, 4:10am EDT

Sun Apr 21, 3:10am EDT

Sun Apr 21, 2:10am EDT

Sun Apr 21, 1:10am EDT

Sun Apr 21, 12:10am EDT

Sat Apr 20, 11:10pm EDT

Sat Apr 20, 10:10pm EDT

Sat Apr 20, 9:10pm EDT

Sat Apr 20, 8:10pm EDT

Sat Apr 20, 7:10pm EDT

Sat Apr 20, 6:10pm EDT

Sat Apr 20, 5:10pm EDT

Sat Apr 20, 4:10pm EDT

Sat Apr 20, 3:10pm EDT

Sat Apr 20, 2:10pm EDT

Sat Apr 20, 1:10pm EDT

Sat Apr 20, 12:10pm EDT

Sat Apr 20, 11:10am EDT

Sat Apr 20, 10:10am EDT

Sat Apr 20, 9:10am EDT

Sat Apr 20, 8:10am EDT

Sat Apr 20, 7:10am EDT

Sat Apr 20, 6:10am EDT

Sat Apr 20, 5:10am EDT

Sat Apr 20, 4:10am EDT

Sat Apr 20, 3:10am EDT

Sat Apr 20, 2:10am EDT

Sat Apr 20, 1:10am EDT

Sat Apr 20, 12:10am EDT

Fri Apr 19, 11:10pm EDT

Fri Apr 19, 10:10pm EDT

Fri Apr 19, 9:10pm EDT

Fri Apr 19, 8:10pm EDT

Fri Apr 19, 7:10pm EDT

Fri Apr 19, 6:10pm EDT

Fri Apr 19, 5:10pm EDT

Fri Apr 19, 4:10pm EDT

Fri Apr 19, 3:10pm EDT

Fri Apr 19, 2:10pm EDT

Fri Apr 19, 1:10pm EDT

Fri Apr 19, 12:10pm EDT

Fri Apr 19, 11:10am EDT

Fri Apr 19, 10:10am EDT

Fri Apr 19, 9:10am EDT

Fri Apr 19, 8:10am EDT

Fri Apr 19, 7:10am EDT

Fri Apr 19, 6:10am EDT

Fri Apr 19, 5:10am EDT

Fri Apr 19, 4:10am EDT

Fri Apr 19, 3:10am EDT

Fri Apr 19, 2:10am EDT

Fri Apr 19, 1:10am EDT

Fri Apr 19, 12:10am EDT

Thu Apr 18, 11:10pm EDT

Thu Apr 18, 10:10pm EDT

Thu Apr 18, 9:10pm EDT

Thu Apr 18, 8:10pm EDT

Thu Apr 18, 7:10pm EDT

Thu Apr 18, 6:10pm EDT

Thu Apr 18, 5:10pm EDT

Thu Apr 18, 4:10pm EDT

Thu Apr 18, 3:10pm EDT

Thu Apr 18, 2:10pm EDT

Thu Apr 18, 1:10pm EDT

Thu Apr 18, 12:10pm EDT

Thu Apr 18, 11:10am EDT

Thu Apr 18, 10:10am EDT

Thu Apr 18, 9:10am EDT

Thu Apr 18, 8:10am EDT

Thu Apr 18, 7:10am EDT

Thu Apr 18, 6:10am EDT

Thu Apr 18, 5:10am EDT

Thu Apr 18, 4:10am EDT

Thu Apr 18, 3:10am EDT

Thu Apr 18, 2:10am EDT

Thu Apr 18, 1:10am EDT

Thu Apr 18, 12:10am EDT

Wed Apr 17, 11:10pm EDT

Wed Apr 17, 10:10pm EDT

Wed Apr 17, 9:10pm EDT

Wed Apr 17, 8:10pm EDT

Wed Apr 17, 7:10pm EDT

Wed Apr 17, 6:10pm EDT

Wed Apr 17, 5:10pm EDT

Wed Apr 17, 4:10pm EDT

Wed Apr 17, 3:10pm EDT

Wed Apr 17, 2:10pm EDT

Wed Apr 17, 1:10pm EDT

Wed Apr 17, 12:10pm EDT

Wed Apr 17, 11:10am EDT

Wed Apr 17, 10:10am EDT

Wed Apr 17, 9:10am EDT

Wed Apr 17, 8:10am EDT

Wed Apr 17, 7:10am EDT

Wed Apr 17, 6:10am EDT

Wed Apr 17, 5:10am EDT

Wed Apr 17, 4:10am EDT

Wed Apr 17, 3:10am EDT

Wed Apr 17, 2:10am EDT

Wed Apr 17, 1:10am EDT

Wed Apr 17, 12:10am EDT

Tue Apr 16, 11:10pm EDT

Tue Apr 16, 10:10pm EDT

Tue Apr 16, 9:10pm EDT

Tue Apr 16, 8:10pm EDT

Tue Apr 16, 7:10pm EDT

Tue Apr 16, 6:10pm EDT

Tue Apr 16, 5:10pm EDT

Tue Apr 16, 4:10pm EDT

Tue Apr 16, 3:10pm EDT

Tue Apr 16, 2:10pm EDT

Tue Apr 16, 1:10pm EDT

Tue Apr 16, 12:10pm EDT

Tue Apr 16, 11:10am EDT

Tue Apr 16, 10:10am EDT

Tue Apr 16, 9:10am EDT

Tue Apr 16, 8:10am EDT

Tue Apr 16, 7:10am EDT

Tue Apr 16, 6:10am EDT

Tue Apr 16, 5:10am EDT

Tue Apr 16, 4:10am EDT

Tue Apr 16, 3:10am EDT

Tue Apr 16, 2:10am EDT

Tue Apr 16, 1:10am EDT

Tue Apr 16, 12:10am EDT

Mon Apr 15, 11:10pm EDT

Mon Apr 15, 10:10pm EDT

Mon Apr 15, 9:10pm EDT

Mon Apr 15, 8:10pm EDT

Mon Apr 15, 7:10pm EDT

Mon Apr 15, 6:10pm EDT

Mon Apr 15, 5:10pm EDT

Mon Apr 15, 4:10pm EDT

Mon Apr 15, 3:10pm EDT

Mon Apr 15, 2:10pm EDT

Mon Apr 15, 1:10pm EDT

Mon Apr 15, 12:10pm EDT

Mon Apr 15, 11:10am EDT

Mon Apr 15, 10:10am EDT

Mon Apr 15, 9:10am EDT

Mon Apr 15, 8:10am EDT